Christmas Island, Australian Islands

12:41 AM CXT on May 26, 2015 (GMT +0700)
Christmas Island | | Change Station
CLOSE
Current Station
Personal Weather Station
Location: Christmas Island, WESTERN AUSTRALIA
Elevation: 732 ft
Nearby Weather Stations

Elev 732 ft 10.42 °S, 105.69 °E | Updated 2 minutes ago

Clear
Clear
75.2 °F
Feels Like 76 °F
N
3.0
Wind Variable Wind from ESE
Gusts 7.0 mph

Today
High -- | Low -- °F
--% Chance of Precip.
Yesterday
High -- | Low -- °F
Precip. -- in
6:06 AM 5:41 PM
Waxing Crescent, 50% visible
Pressure 29.98 in
Visibility 5.6 miles
Clouds
Heat Index 76 °F
Dew Point 69 °F
Humidity 80%
Rainfall 0.00 in
Snow Depth Not available.
UV Not available.
Pollen Not available.
Air Quality Not available.
Flu Activity Not available.
METAR YPXM 251700Z AUTO 00000KT 9000 // NCD 22/21 Q1015

More Conditions Fewer Conditions

Pressure 29.98 in
Visibility 5.6 miles
Clouds
Heat Index 76 °F
Dew Point 69 °F
Humidity 80%
Rainfall 0.00 in
Snow Depth Not available.
UV Not available.
Pollen Not available.
Air Quality Not available.
Flu Activity Not available.
METAR YPXM 251700Z AUTO 00000KT 9000 // NCD 22/21 Q1015

More Conditions Fewer Conditions

10-Day Weather Forecast

Almanac

Astronomy

May. 26, 2015 Rise Set
Actual Time
Civil Twilight
Nautical Twilight
Astronomical Twilight
Moon
Length of Visible Light
Length of Day
Tomorrow will be .
, % of the Moon is Illuminated

Today's Extremes

Country Highs Country Lows

Community

WunderPhotos

Upload Photos

1,824,071 photos uploaded!

WunderBlogs® & News

Nearby

Air Quality

  Air Quality AQ Index Pollutant
Not available.

Snow Depth

Station Depth Elevation

Earthquake Activity

City Distance Mag. Time & Date
Minimum magnitude displayed is 2.5.

Coastal Water Temperatures

Place Temperature

Stations

Nearby Weather Stations

Station Location Temp. Windchill Dew Point Humidity Wind Precip. Elev Updated Type